SL-16 DEB, 22403

Orbit data source: Space-Track

SL-16 DEB, 22403 is space debris in LEO originally from a launch on Fri, 25 Dec 1992 UTC launched from the Tyuratam Missile And Space Complex (TTMTR). Debris objects in space refer to the collection of defunct objects orbiting the Earth. Examples of debris include non-operational satellites, rocket bodies, and fragments generated from explosions, collisions, or faulty payload assembly.

Loading next visibility...
Identifier
22403, 1992-093CU
Orbit
LEO
Country
Flag of CISCIS
Related business
Manufacturer
Unknown
Mission
Spacecraft
Bus & Motor
Unknown
Mass
Unknown
Launch date (UTC)
1992-12-25 (33 years ago)
Launch vehicle
Unknown
Launch site
Tyuratam Missile And Space Complex (TTMTR)
Object type
Payload
Rocket body
Debris
Shape & HBR
Unknown shape, 0.1 m
Radar Cross Section
Small (<0.1 m²)

Expand to show TLE details & history
Last TLE update: 14 hours ago

TLE from 14 hours ago
0 SL-16 DEB
1 22403U 92093CU  26133.18565104  .00000465  00000-0  29812-3 0  9999
2 22403  70.8911 282.9272 0081094 172.1721   7.4886 14.06973151704511
Epoch: 2026-05-13T04:27Z
TLE epoch observation values (Epoch: 2026-05-13T04:27:20.249Z)
Latitude
0.09974°
Longitude
165.10916°
Altitude
813.845 km
Speed
7.476 km/s
True Right ascension
06h 51m 34s
True Declination
0° 05' 57"
Sunlit
Object was in daylight at epoch
Visualization orbit readout
Latitude
Unknown
Longitude
Unknown
Altitude
Unknown
Speed
Unknown
Apparent Right ascension
Unknown
Apparent Declination
Unknown
Sunlit
N/A
Visualization observer readout
Local Sidereal Time
02:59:26
Azimuth
Unknown
Elevation
Unknown
Doppler factor
Unknown
Orbital elements
Apogee altitude
926.451 km
Perigee altitude
808.932 km
Semi-major axis
7,245.828 km
Eccentricity
0.00811
Inclination
70.8911°
RAAN
282.9272°
Arg. of periapsis
172.1721°
True anomaly
7.61094°
Mean anomaly
7.4886°
Eccentric anomaly
7.54965°
Mean motion
3.51893 °/min
Orbital period
102.3 mins
BSTAR
0.00029812
Loading maneuver chart data...
Computing Atmospheric mass density...
Loading historical data...
Loading historical data...
Loading historical data...
Loading historical data...
Loading historical data...
Loading historical data...
Loading historical data...

Documentation

Showing up to 5 results
|